| time (UTC) | temp F | wind direction | speed MPH | gust MPH | rain 1hr in | rain 24hr in | rain mn in | humidity % | barometer mb |
| 20260510121122 | 53 | 231 | 1.0 | 2.0 | 0.00 | 0.00 | 0.00 | 60 | 1016.1 |
| 20260510120118 | 53 | 273 | 2.0 | 2.0 | 0.00 | 0.00 | 0.00 | 60 | 1016.3 |
| 20260510115134 | 54 | 254 | 2.0 | 2.0 | 0.00 | 0.00 | 0.00 | 58 | 1016.6 |
| 20260510114130 | 54 | 207 | 2.0 | 2.0 | 0.00 | 0.00 | 0.00 | 57 | 1016.5 |
| 20260510113126 | 55 | 224 | 1.0 | 2.0 | 0.00 | 0.00 | 0.00 | 57 | 1016.5 |
| 20260510112123 | 55 | 235 | 1.0 | 2.0 | 0.00 | 0.00 | 0.00 | 55 | 1016.4 |
| 20260510111119 | 57 | 269 | 1.0 | 1.0 | 0.00 | 0.00 | 0.00 | 52 | 1016.5 |
| 20260510110136 | 56 | 281 | 2.0 | 2.0 | 0.00 | 0.00 | 0.00 | 51 | 1016.5 |
| 20260510105151 | 55 | 354 | 1.0 | 2.0 | 0.00 | 0.00 | 0.00 | 52 | 1016.6 |
| 20260510104127 | 55 | 359 | 2.0 | 3.0 | 0.00 | 0.00 | 0.00 | 52 | 1016.6 |
| 20260510103123 | 57 | 299 | 6.0 | 7.0 | 0.00 | 0.00 | 0.00 | 49 | 1016.6 |
| 20260510102120 | 56 | 301 | 6.0 | 7.0 | 0.00 | 0.00 | 0.00 | 50 | 1016.5 |
| 20260510101136 | 56 | 310 | 4.0 | 5.0 | 0.00 | 0.00 | 0.00 | 50 | 1016.6 |
| 20260510100134 | 57 | 338 | 3.0 | 4.0 | 0.00 | 0.00 | 0.00 | 49 | 1016.6 |
| 20260510095128 | 57 | 327 | 1.0 | 2.0 | 0.00 | 0.00 | 0.00 | 50 | 1016.4 |
| 20260510094124 | 57 | 357 | 3.0 | 4.0 | 0.00 | 0.00 | 0.00 | 51 | 1016.7 |
| 20260510093120 | 56 | 294 | 1.0 | 2.0 | 0.00 | 0.00 | 0.00 | 53 | 1016.7 |
| 20260510092116 | 57 | 0.0 | 0.0 | 0.00 | 0.00 | 0.00 | 52 | 1016.8 | |
| 20260510091133 | 57 | 329 | 0.0 | 1.0 | 0.00 | 0.00 | 0.00 | 53 | 1017.0 |
| 20260510090129 | 57 | 75 | 1.0 | 2.0 | 0.00 | 0.00 | 0.00 | 53 | 1016.8 |
| 20260510085125 | 58 | 290 | 2.0 | 2.0 | 0.00 | 0.00 | 0.00 | 52 | 1016.9 |
| 20260510084121 | 59 | 298 | 4.0 | 4.0 | 0.00 | 0.00 | 0.00 | 49 | 1017.1 |
| 20260510083118 | 58 | 318 | 3.0 | 3.0 | 0.00 | 0.00 | 0.00 | 50 | 1017.0 |
| 20260510082134 | 58 | 326 | 3.0 | 4.0 | 0.00 | 0.00 | 0.00 | 50 | 1017.1 |
| 20260510081130 | 60 | 340 | 3.0 | 3.0 | 0.00 | 0.00 | 0.00 | 46 | 1017.2 |
| 20260510080126 | 59 | 274 | 2.0 | 2.0 | 0.00 | 0.00 | 0.00 | 46 | 1017.2 |
| 20260510075122 | 61 | 257 | 1.0 | 2.0 | 0.00 | 0.00 | 0.00 | 45 | 1017.1 |
| 20260510074139 | 60 | 232 | 1.0 | 2.0 | 0.00 | 0.00 | 0.00 | 46 | 1017.4 |
| 20260510073155 | 61 | 251 | 2.0 | 2.0 | 0.00 | 0.00 | 0.00 | 44 | 1017.5 |
| 20260510072131 | 60 | 232 | 2.0 | 2.0 | 0.00 | 0.00 | 0.00 | 45 | 1017.3 |
| 20260510071150 | 61 | 220 | 1.0 | 2.0 | 0.00 | 0.00 | 0.00 | 43 | 1017.4 |
| 20260510070124 | 61 | 249 | 2.0 | 2.0 | 0.00 | 0.00 | 0.00 | 43 | 1017.5 |
| 20260510065120 | 62 | 245 | 2.0 | 2.0 | 0.00 | 0.00 | 0.00 | 42 | 1017.5 |
| 20260510064120 | 62 | 244 | 2.0 | 2.0 | 0.00 | 0.00 | 0.00 | 42 | 1017.4 |
| 20260510063152 | 62 | 254 | 1.0 | 2.0 | 0.00 | 0.00 | 0.00 | 41 | 1017.3 |
| 20260510062128 | 62 | 229 | 2.0 | 2.0 | 0.00 | 0.00 | 0.00 | 43 | 1017.6 |
| 20260510061124 | 63 | 259 | 1.0 | 2.0 | 0.00 | 0.00 | 0.00 | 40 | 1017.3 |
| 20260510060120 | 63 | 260 | 1.0 | 1.0 | 0.00 | 0.00 | 0.00 | 40 | 1017.3 |
| 20260510055316 | 63 | 258 | 1.0 | 2.0 | 0.00 | 0.00 | 0.00 | 41 | 1017.5 |
| 20260510053831 | 63 | 274 | 1.0 | 2.0 | 0.00 | 0.00 | 0.00 | 42 | 1017.7 |
| 20260510053533 | 63 | 260 | 1.0 | 2.0 | 0.00 | 0.00 | 0.00 | 42 | 1017.7 |
| 20260510053210 | 63 | 259 | 2.0 | 2.0 | 0.00 | 0.00 | 0.00 | 44 | 1017.7 |
| 20260510052128 | 64 | 254 | 2.0 | 3.0 | 0.00 | 0.00 | 0.00 | 43 | 1017.5 |
| 20260510041634 | 66 | 224 | 1.0 | 2.0 | 0.00 | 0.00 | 0.00 | 40 | 1018.1 |
| 20260510040701 | 66 | 220 | 1.0 | 2.0 | 0.00 | 0.00 | 0.00 | 40 | 1018.0 |
| 20260510035624 | 67 | 222 | 1.0 | 2.0 | 0.00 | 0.00 | 0.00 | 39 | 1017.8 |
| 20260510034624 | 68 | 228 | 1.0 | 2.0 | 0.00 | 0.00 | 0.00 | 38 | 1017.9 |
| 20260510033623 | 69 | 225 | 1.0 | 2.0 | 0.00 | 0.00 | 0.00 | 36 | 1017.8 |
| 20260510032642 | 70 | 194 | 1.0 | 2.0 | 0.00 | 0.00 | 0.00 | 34 | 1017.9 |
| 20260510031656 | 70 | 163 | 2.0 | 3.0 | 0.00 | 0.00 | 0.00 | 33 | 1018.0 |
| 20260510030653 | 70 | 158 | 1.0 | 3.0 | 0.00 | 0.00 | 0.00 | 33 | 1018.0 |
| 20260510025635 | 71 | 124 | 2.0 | 3.0 | 0.00 | 0.00 | 0.00 | 32 | 1018.0 |
| 20260510024633 | 72 | 91 | 2.0 | 4.0 | 0.00 | 0.00 | 0.00 | 31 | 1017.6 |
| 20260510023627 | 72 | 0.0 | 2.0 | 0.00 | 0.00 | 0.00 | 30 | 1018.0 | |
| 20260510022628 | 73 | 61 | 4.0 | 5.0 | 0.00 | 0.00 | 0.00 | 28 | 1017.8 |
| 20260510021648 | 73 | 55 | 3.0 | 4.0 | 0.00 | 0.00 | 0.00 | 29 | 1018.0 |
| 20260510020624 | 73 | 61 | 5.0 | 7.0 | 0.00 | 0.00 | 0.00 | 27 | 1018.1 |
| 20260510015643 | 74 | 46 | 3.0 | 5.0 | 0.00 | 0.00 | 0.00 | 28 | 1017.9 |
| 20260510014641 | 74 | 40 | 3.0 | 3.0 | 0.00 | 0.00 | 0.00 | 29 | 1018.3 |
| 20260510013636 | 74 | 67 | 4.0 | 6.0 | 0.00 | 0.00 | 0.00 | 28 | 1018.3 |
| 20260510012638 | 74 | 50 | 6.0 | 9.0 | 0.00 | 0.00 | 0.00 | 30 | 1018.2 |
| 20260510011716 | 74 | 61 | 3.0 | 6.0 | 0.00 | 0.00 | 0.00 | 30 | 1018.5 |
| 20260510010630 | 75 | 50 | 6.0 | 8.0 | 0.00 | 0.00 | 0.00 | 30 | 1018.6 |
| 20260510005632 | 75 | 59 | 7.0 | 13.0 | 0.00 | 0.00 | 0.00 | 30 | 1018.7 |
| 20260510004628 | 75 | 67 | 4.0 | 6.0 | 0.00 | 0.00 | 0.00 | 31 | 1018.7 |
| 20260510003622 | 75 | 79 | 3.0 | 6.0 | 0.00 | 0.00 | 0.00 | 30 | 1018.6 |
| 20260510002618 | 75 | 110 | 2.0 | 4.0 | 0.00 | 0.00 | 0.00 | 30 | 1018.8 |
| 20260510001640 | 76 | 44 | 6.0 | 10.0 | 0.00 | 0.00 | 0.00 | 30 | 1018.9 |
| 20260510000639 | 76 | 25 | 6.0 | 9.0 | 0.00 | 0.00 | 0.00 | 29 | 1018.9 |
| 20260509235632 | 76 | 64 | 6.0 | 9.0 | 0.00 | 0.00 | 0.00 | 28 | 1019.0 |
| 20260509234629 | 76 | 67 | 3.0 | 4.0 | 0.00 | 0.00 | 0.00 | 29 | 1019.0 |
| 20260509233651 | 75 | 57 | 3.0 | 5.0 | 0.00 | 0.00 | 0.00 | 29 | 1019.3 |
| 20260509232631 | 76 | 52 | 7.0 | 10.0 | 0.00 | 0.00 | 0.00 | 29 | 1019.3 |
| 20260509231621 | 75 | 94 | 3.0 | 5.0 | 0.00 | 0.00 | 0.00 | 31 | 1019.0 |
| 20260509230703 | 76 | 46 | 8.0 | 11.0 | 0.00 | 0.00 | 0.00 | 30 | 1019.4 |
| 20260509225617 | 75 | 54 | 9.0 | 11.0 | 0.00 | 0.00 | 0.00 | 31 | 1019.4 |
| 20260509224635 | 75 | 95 | 4.0 | 6.0 | 0.00 | 0.00 | 0.00 | 32 | 1019.7 |
| 20260509223634 | 74 | 181 | 2.0 | 3.0 | 0.00 | 0.00 | 0.00 | 31 | 1019.8 |
| 20260509222636 | 74 | 67 | 5.0 | 9.0 | 0.00 | 0.00 | 0.00 | 32 | 1019.8 |
| 20260509221655 | 75 | 71 | 3.0 | 4.0 | 0.00 | 0.00 | 0.00 | 32 | 1019.8 |
| 20260509220626 | 75 | 96 | 2.0 | 4.0 | 0.00 | 0.00 | 0.00 | 34 | 1020.1 |
| 20260509215624 | 75 | 49 | 5.0 | 6.0 | 0.00 | 0.00 | 0.00 | 32 | 1020.3 |
| 20260509214627 | 74 | 176 | 3.0 | 4.0 | 0.00 | 0.00 | 0.00 | 32 | 1020.3 |
| 20260509213622 | 76 | 37 | 5.0 | 8.0 | 0.00 | 0.00 | 0.00 | 32 | 1020.2 |
| 20260509212621 | 76 | 11 | 8.0 | 11.0 | 0.00 | 0.00 | 0.00 | 32 | 1020.2 |
| 20260509211642 | 75 | 21 | 4.0 | 9.0 | 0.00 | 0.00 | 0.00 | 31 | 1020.5 |
| 20260509210635 | 76 | 55 | 5.0 | 6.0 | 0.00 | 0.00 | 0.00 | 31 | 1020.7 |
| 20260509205637 | 75 | 147 | 3.0 | 5.0 | 0.00 | 0.00 | 0.00 | 33 | 1020.8 |
| 20260509204631 | 73 | 223 | 5.0 | 5.0 | 0.00 | 0.00 | 0.00 | 33 | 1020.8 |
| 20260509203625 | 74 | 125 | 4.0 | 7.0 | 0.00 | 0.00 | 0.00 | 32 | 1020.8 |
| 20260509202627 | 74 | 189 | 8.0 | 11.0 | 0.00 | 0.00 | 0.00 | 32 | 1021.1 |
| 20260509201644 | 73 | 169 | 2.0 | 4.0 | 0.00 | 0.00 | 0.00 | 32 | 1021.1 |
| 20260509200620 | 72 | 188 | 4.0 | 6.0 | 0.00 | 0.00 | 0.00 | 32 | 1021.3 |
| 20260509195641 | 72 | 129 | 3.0 | 3.0 | 0.00 | 0.00 | 0.00 | 33 | 1021.3 |
| 20260509194636 | 72 | 125 | 3.0 | 7.0 | 0.00 | 0.00 | 0.00 | 35 | 1021.3 |
| 20260509193632 | 72 | 99 | 4.0 | 7.0 | 0.00 | 0.00 | 0.00 | 34 | 1021.4 |
| 20260509192637 | 72 | 51 | 5.0 | 6.0 | 0.00 | 0.00 | 0.00 | 31 | 1021.7 |
| 20260509191649 | 71 | 340 | 4.0 | 7.0 | 0.00 | 0.00 | 0.00 | 32 | 1021.9 |
| 20260509190625 | 70 | 328 | 4.0 | 5.0 | 0.00 | 0.00 | 0.00 | 34 | 1021.8 |
| 20260509185635 | 70 | 164 | 5.0 | 7.0 | 0.00 | 0.00 | 0.00 | 34 | 1022.0 |
| 20260509184626 | 70 | 177 | 8.0 | 10.0 | 0.00 | 0.00 | 0.00 | 35 | 1022.1 |
| 20260509183640 | 70 | 181 | 3.0 | 4.0 | 0.00 | 0.00 | 0.00 | 35 | 1022.2 |
| 20260509182641 | 69 | 185 | 1.0 | 3.0 | 0.00 | 0.00 | 0.00 | 37 | 1022.2 |
| 20260509181633 | 69 | 335 | 2.0 | 3.0 | 0.00 | 0.00 | 0.00 | 36 | 1022.5 |
| 20260509180635 | 68 | 242 | 1.0 | 2.0 | 0.00 | 0.00 | 0.00 | 41 | 1022.4 |
| 20260509175633 | 68 | 4 | 5.0 | 10.0 | 0.00 | 0.00 | 0.00 | 37 | 1022.4 |
| 20260509174632 | 67 | 249 | 3.0 | 6.0 | 0.00 | 0.00 | 0.00 | 41 | 1022.6 |
| 20260509173631 | 68 | 302 | 4.0 | 5.0 | 0.00 | 0.00 | 0.00 | 39 | 1022.5 |
| 20260509172624 | 67 | 51 | 2.0 | 3.0 | 0.00 | 0.00 | 0.00 | 43 | 1022.9 |
| 20260509171624 | 67 | 309 | 3.0 | 5.0 | 0.00 | 0.00 | 0.00 | 41 | 1022.6 |
| 20260509170623 | 65 | 210 | 2.0 | 4.0 | 0.00 | 0.00 | 0.00 | 43 | 1022.9 |
| 20260509165641 | 64 | 219 | 0.0 | 2.0 | 0.00 | 0.00 | 0.00 | 43 | 1022.8 |
| 20260509164634 | 64 | 183 | 4.0 | 7.0 | 0.00 | 0.00 | 0.00 | 46 | 1022.7 |
| 20260509163632 | 65 | 175 | 3.0 | 4.0 | 0.00 | 0.00 | 0.00 | 45 | 1022.7 |
| 20260509162632 | 63 | 200 | 2.0 | 3.0 | 0.00 | 0.00 | 0.00 | 45 | 1023.0 |
| 20260509161631 | 63 | 264 | 1.0 | 3.0 | 0.00 | 0.00 | 0.00 | 46 | 1022.8 |
| 20260509160628 | 63 | 3 | 0.0 | 2.0 | 0.00 | 0.00 | 0.00 | 45 | 1023.0 |
| 20260509155628 | 63 | 9 | 3.0 | 5.0 | 0.00 | 0.00 | 0.00 | 48 | 1022.9 |
| 20260509154620 | 62 | 325 | 3.0 | 4.0 | 0.00 | 0.00 | 0.00 | 48 | 1023.0 |
| 20260509153622 | 62 | 10 | 3.0 | 4.0 | 0.00 | 0.00 | 0.00 | 50 | 1023.0 |
| 20260509152640 | 63 | 44 | 1.0 | 2.0 | 0.00 | 0.00 | 0.00 | 48 | 1023.0 |
| 20260509151658 | 62 | 268 | 1.0 | 3.0 | 0.00 | 0.00 | 0.00 | 49 | 1022.9 |
| 20260509150636 | 61 | 226 | 1.0 | 2.0 | 0.00 | 0.00 | 0.00 | 50 | 1022.9 |
| 20260509145632 | 61 | 209 | 3.0 | 4.0 | 0.00 | 0.00 | 0.00 | 54 | 1022.8 |
| 20260509144630 | 59 | 354 | 2.0 | 4.0 | 0.00 | 0.00 | 0.00 | 55 | 1022.8 |
| 20260509143648 | 58 | 338 | 3.0 | 4.0 | 0.00 | 0.00 | 0.00 | 58 | 1022.7 |
| 20260509142623 | 57 | 15 | 3.0 | 4.0 | 0.00 | 0.00 | 0.00 | 59 | 1022.5 |
| 20260509141622 | 56 | 5 | 4.0 | 4.0 | 0.00 | 0.00 | 0.00 | 60 | 1022.6 |
| 20260509140618 | 55 | 339 | 3.0 | 4.0 | 0.00 | 0.00 | 0.00 | 62 | 1022.6 |
| 20260509135639 | 54 | 357 | 2.0 | 3.0 | 0.00 | 0.00 | 0.00 | 66 | 1022.4 |
| 20260509134633 | 53 | 297 | 1.0 | 2.0 | 0.00 | 0.00 | 0.00 | 68 | 1022.5 |
| 20260509133657 | 52 | 251 | 0.0 | 1.0 | 0.00 | 0.00 | 0.00 | 69 | 1022.2 |
| 20260509132653 | 52 | 231 | 0.0 | 1.0 | 0.00 | 0.00 | 0.00 | 66 | 1022.1 |
| 20260509131648 | 53 | 0.0 | 0.0 | 0.00 | 0.00 | 0.00 | 65 | 1022.2 | |
| 20260509130625 | 52 | 311 | 1.0 | 2.0 | 0.00 | 0.00 | 0.00 | 65 | 1022.1 |
| 20260509125625 | 52 | 336 | 2.0 | 3.0 | 0.00 | 0.00 | 0.00 | 65 | 1022.2 |
| 20260509124620 | 51 | 58 | 0.0 | 1.0 | 0.00 | 0.00 | 0.00 | 68 | 1022.0 |
| 20260509123623 | 51 | 346 | 2.0 | 4.0 | 0.00 | 0.00 | 0.00 | 69 | 1022.0 |
| 20260509122641 | 50 | 257 | 2.0 | 3.0 | 0.00 | 0.00 | 0.00 | 70 | 1021.9 |